CAPE
0 0 0 0 0 0 0 0 0 0 0 0 0 0 0 0 0 55 67 135 216 371 485 343 439 502 539 480 464 623 633 529 283 46 3 4 5 5 3 9 5 8 5 11 5 6 12 8 3
0 0 0 0 0 0 0 0 0 0 0 0 0 0 0 0 3 37 57 96 142 486 166 278 334 395 494 462 337 664 682 513 174 8 1 3 7 6 2 12 11 0 6 6 4 1 3 6 6
0 0 0 0 0 0 0 0 0 0 0 0 0 0 0 0 20 77 47 69 97 181 219 349 255 279 368 317 230 722 627 390 42 0 1 1 5 8 4 23 8 2 6 2 8 2 8 9 8
0 0 0 0 0 0 0 0 0 0 0 0 0 0 0 0 36 50 23 0 46 440 209 123 190 135 117 168 210 522 608 348 29 0 0 0 6 2 0 0 5 16 0 3 7 3 5 11 7
0 0 0 0 0 0 0 0 0 0 0 0 0 0 0 0 11 21 26 0 138 472 197 52 209 233 102 86 207 223 560 359 29 0 0 0 0 0 0 1 13 6 1 4 14 22 15 10 8
0 0 0 0 0 0 0 0 0 0 0 0 0 0 0 0 11 26 11 0 153 310 201 81 165 66 6 42 160 145 422 284 0 0 0 0 0 0 0 0 11 22 18 23 12 8 7 7 2
0 0 0 0 0 0 0 0 0 0 0 0 0 0 0 0 28 35 24 6 100 319 250 44 12 2 0 0 0 9 289 176 0 0 0 0 0 3 0 0 2 39 22 0 8 6 3 7 0
0 0 0 0 0 0 0 0 0 0 0 0 0 0 0 0 35 20 30 33 124 305 313 156 38 0 0 0 0 0 7 21 0 0 0 0 0 0 0 0 0 7 8 8 1 5 3 0 0
0 0 0 0 0 0 0 0 0 0 0 0 0 0 0 0 19 23 35 66 128 189 243 234 136 13 1 0 0 0 0 0 0 0 0 0 0 0 0 0 0 1 4 5 6 0 0 0 0
0 0 0 0 0 0 0 0 0 0 0 0 0 0 0 5 18 31 52 115 126 122 247 284 230 109 16 0 0 0 0 0 1 0 0 1 0 0 0 0 0 0 1 3 4 1 0 0 3
0 0 0 0 0 0 0 0 0 0 0 0 0 0 0 2 7 27 34 87 123 130 175 130 202 194 95 0 0 1 0 2 2 2 1 0 0 0 0 1 0 0 0 3 0 0 0 0 0
0 0 0 0 0 0 0 0 0 0 0 0 0 0 0 0 0 0 3 35 95 108 121 98 107 139 175 92 32 15 0 1 1 1 1 0 0 0 0 0 1 1 0 0 0 0 0 0 0
0 0 0 0 0 0 0 0 0 0 0 0 0 0 0 0 0 0 0 0 13 67 82 95 112 59 100 139 90 64 30 0 0 1 0 0 0 0 0 0 0 0 0 0 0 0 0 0 0
0 0 0 0 0 0 0 0 0 0 0 0 0 0 0 0 0 0 0 0 0 13 53 94 80 71 39 23 1 8 33 15 3 1 0 0 0 0 0 0 0 0 0 0 0 0 0 0 0
0 0 0 0 0 0 0 0 0 0 0 0 0 0 0 0 0 0 0 0 0 0 54 71 101 98 14 26 18 2 1 1 2 4 1 0 0 0 0 0 0 0 0 0 0 0 0 0 0
0 0 0 0 0 0 0 0 0 0 0 0 0 0 0 0 0 0 0 0 0 0 37 142 154 153 21 3 15 6 3 0 0 1 2 0 0 0 0 0 0 0 0 0 0 0 0 0 0
0 0 0 0 0 0 0 0 0 0 0 0 0 0 0 0 0 0 0 0 0 0 13 80 166 98 15 15 31 30 12 2 2 1 0 5 0 0 0 0 0 0 0 0 0 0 0 0 0
0 0 0 0 0 0 0 0 0 0 0 0 0 0 0 0 0 0 0 0 0 0 0 17 129 165 91 8 32 40 38 33 40 31 0 1 1 2 0 0 0 0 0 0 0 0 0 0 0
0 0 0 0 0 0 0 0 0 0 0 0 0 0 0 0 0 0 0 0 0 0 0 0 20 126 155 16 30 28 23 38 44 40 25 0 0 2 3 0 0 0 0 0 0 0 0 0 0
0 0 0 0 0 0 0 0 0 0 0 0 0 0 0 0 0 0 0 0 0 0 0 0 0 8 129 54 30 39 39 42 44 32 10 0 0 7 2 2 0 0 0 0 0 0 0 0 0
0 0 0 0 0 0 0 0 0 0 0 0 0 0 0 0 0 0 0 0 0 0 0 0 0 0 4 75 2 8 9 25 31 38 24 3 1 2 4 0 0 0 0 0 0 0 0 0 0
0 0 0 0 0 0 0 0 0 0 0 0 0 0 0 0 0 0 0 0 0 0 0 0 0 0 0 0 14 2 3 2 1 5 23 6 3 3 3 3 0 0 0 0 0 0 0 0 3
0 0 0 0 0 0 0 0 0 0 0 0 0 0 0 0 0 0 0 0 0 0 0 0 0 0 0 0 0 3 2 1 1 5 12 12 8 6 5 5 5 1 1 0 0 1 1 1 3
0 0 0 0 0 0 0 0 0 0 0 0 0 0 0 0 0 0 0 0 0 0 0 0 0 0 0 0 0 0 2 0 1 1 3 13 14 9 23 22 14 7 4 3 1 1 2 1 2
0 0 0 0 0 0 0 0 0 0 0 0 0 0 0 0 0 0 0 0 0 0 0 0 0 0 0 1 1 0 0 0 1 1 0 1 1 1 2 1 2 1 3 1 2 0 2 0 1
0 0 0 0 0 0 0 0 0 0 0 0 0 0 0 0 0 0 0 0 0 0 0 0 0 0 0 0 0 0 0 0 0 0 0 0 0 0 0 0 0 0 0 1 1 4 3 3 1
0 0 0 0 0 0 0 0 0 0 0 0 0 0 0 0 0 0 0 0 0 0 0 0 0 0 0 0 0 0 0 0 0 0 0 0 0 0 0 0 0 0 0 0 0 0 1 2 2
0 0 0 0 0 0 0 0 0 0 0 0 0 0 0 0 0 0 0 0 0 0 0 0 0 0 0 0 0 0 0 0 0 0 0 0 0 0 0 0 0 0 0 0 0 0 0 0 1
0 0 0 0 0 0 0 0 0 0 0 0 0 0 0 0 0 0 0 0 0 0 0 0 0 0 0 0 0 0 0 0 0 0 0 0 0 0 0 0 0 0 0 0 0 0 0 0 0
0 0 0 0 0 0 0 0 0 0 0 0 0 0 0 0 0 0 0 0 0 0 0 0 0 0 0 0 0 0 0 0 0 0 0 0 0 0 0 0 0 0 0 0 0 0 0 0 0
CIN
-0 -0 -0 -0 -0 -0 -0 -0 -0 -0 -0 -0 -0 -0 -0 -0 -0 -13 -62 -20 -13 -3 -16 -32 -7 -1 -2 -3 -4 -2 -2 -0 -10 -67 -8 -28 -0 -0 -1 -2 -1 -0 -0 -0 -1 -0 -0 -4 -3
-0 -0 -0 -0 -0 -0 -0 -0 -0 -0 -0 -0 -0 -0 -0 -0 -14 -118 -61 -22 -14 -1 -28 -32 -28 -17 -6 -5 -17 -2 -1 -0 -14 -124 -0 -0 -0 -0 -0 -2 -6 -0 -0 -0 -0 -0 -0 -0 -0
-0 -0 -0 -0 -0 -0 -0 -0 -0 -0 -0 -0 -0 -0 -0 -0 -126 -67 -66 -42 -19 -11 -13 -20 -50 -43 -20 -31 -48 -1 -2 -1 -61 -0 -0 -0 -0 -1 -1 -25 -6 -1 -0 -0 -0 -0 -0 -1 -1
-0 -0 -0 -0 -0 -0 -0 -0 -0 -0 -0 -0 -0 -0 -0 -0 -135 -112 -107 -0 -32 -2 -18 -86 -64 -80 -71 -46 -29 -3 -0 -4 -63 -0 -0 -0 -0 -1 -0 -0 -5 -3 -0 -0 -0 -1 -2 -3 -2
-0 -0 -0 -0 -0 -0 -0 -0 -0 -0 -0 -0 -0 -0 -0 -0 -235 -186 -162 -0 -15 -1 -19 -88 -50 -44 -71 -68 -26 -16 -0 -1 -43 -0 -0 -0 -0 -0 -0 -5 -3 -3 -0 -0 -2 -4 -2 -3 -6
-0 -0 -0 -0 -0 -0 -0 -0 -0 -0 -0 -0 -0 -0 -0 -0 -265 -207 -196 -0 -6 -3 -19 -60 -38 -64 -53 -72 -22 -23 -1 -5 -0 -0 -0 -0 -0 -0 -0 -0 -2 -8 -3 -1 -5 -1 -2 -3 -5
-0 -0 -0 -0 -0 -0 -0 -0 -0 -0 -0 -0 -0 -0 -0 -0 -267 -251 -217 -158 -20 -1 -18 -99 -142 -28 -0 -0 -0 -44 -2 -8 -0 -0 -0 -0 -0 -1 -0 -0 -0 -0 -5 -0 -6 -1 -1 -3 -0
-0 -0 -0 -0 -0 -0 -0 -0 -0 -0 -0 -0 -0 -0 -0 -0 -277 -271 -255 -190 -54 -4 -8 -38 -133 -0 -0 -0 -0 -0 -72 -62 -0 -0 -0 -0 -0 -0 -0 -0 -0 -4 -6 -3 -4 -8 -9 -0 -0
-0 -0 -0 -0 -0 -0 -0 -0 -0 -0 -0 -0 -0 -0 -0 -0 -285 -273 -244 -184 -81 -33 -14 -18 -66 -199 -55 -0 -0 -0 -0 -0 -0 -0 -0 -0 -0 -0 -0 -0 -0 -0 -2 -1 -2 -1 -0 -0 -0
-0 -0 -0 -0 -0 -0 -0 -0 -0 -0 -0 -0 -0 -0 -0 -176 -289 -250 -245 -154 -122 -76 -35 -23 -35 -88 -199 -0 -0 -0 -0 -0 -0 -0 -0 -0 -0 -0 -0 -0 -0 -0 -0 -2 -2 -0 -0 -0 -0
-0 -0 -0 -0 -0 -0 -0 -0 -0 -0 -0 -0 -0 -0 -0 -45 -260 -248 -236 -167 -130 -123 -93 -122 -66 -48 -120 -0 -0 -0 -0 -0 -0 -0 -0 -0 -0 -0 -0 -0 -0 -0 -0 -1 -0 -0 -0 -0 -0
-0 -0 -0 -0 -0 -0 -0 -0 -0 -0 -0 -0 -0 -0 -0 -0 -0 -0 -167 -238 -179 -134 -145 -180 -169 -123 -74 -130 -184 -199 -1 -0 -0 -0 -0 -0 -0 -0 -0 -0 -0 -0 -0 -0 -0 -0 -0 -0 -0
-0 -0 -0 -0 -0 -0 -0 -0 -0 -0 -0 -0 -0 -0 -0 -0 -0 -0 -0 -0 -169 -206 -150 -164 -171 -241 -179 -124 -157 -160 -194 -0 -0 -0 -0 -0 -0 -0 -0 -0 -0 -0 -0 -0 -0 -0 -0 -0 -0
-0 -0 -0 -0 -0 -0 -0 -0 -0 -0 -0 -0 -0 -0 -0 -0 -0 -0 -0 -0 -0 -297 -229 -179 -206 -226 -247 -253 -31 -74 -182 -157 -0 -0 -0 -0 -0 -0 -0 -0 -0 -0 -0 -0 -0 -0 -0 -0 -0
-0 -0 -0 -0 -0 -0 -0 -0 -0 -0 -0 -0 -0 -0 -0 -0 -0 -0 -0 -0 -0 -12 -278 -247 -211 -220 -316 -273 -238 -0 -0 -2 -0 -0 -0 -0 -0 -0 -0 -0 -0 -0 -0 -0 -0 -0 -0 -0 -0
-0 -0 -0 -0 -0 -0 -0 -0 -0 -0 -0 -0 -0 -0 -0 -0 -0 -0 -0 -0 -0 -0 -311 -201 -191 -183 -309 -62 -257 -127 -29 -1 -1 -1 -0 -0 -0 -0 -0 -0 -0 -0 -0 -0 -0 -0 -0 -0 -0
-0 -0 -0 -0 -0 -0 -0 -0 -0 -0 -0 -0 -0 -0 -0 -0 -0 -0 -0 -0 -0 -0 -303 -264 -203 -262 -348 -339 -283 -264 -297 -0 -1 -2 -0 -91 -0 -0 -0 -0 -0 -0 -0 -0 -0 -0 -0 -0 -0
-0 -0 -0 -0 -0 -0 -0 -0 -0 -0 -0 -0 -0 -0 -0 -0 -0 -0 -0 -0 -0 -0 -0 -333 -223 -195 -253 -379 -318 -284 -254 -237 -225 -239 -16 -0 -0 -0 -0 -0 -0 -0 -0 -0 -0 -0 -0 -0 -0
-0 -0 -0 -0 -0 -0 -0 -0 -0 -0 -0 -0 -0 -0 -0 -0 -0 -0 -0 -0 -0 -0 -0 -0 -365 -233 -209 -336 -322 -308 -301 -262 -249 -235 -257 -0 -0 -0 -0 -0 -0 -0 -0 -0 -0 -0 -0 -0 -0
-0 -0 -0 -0 -0 -0 -0 -0 -0 -0 -0 -0 -0 -0 -0 -0 -0 -0 -0 -0 -0 -0 -0 -0 -0 -136 -234 -330 -366 -321 -314 -300 -255 -244 -259 -1 -0 -178 -7 -0 -0 -0 -0 -0 -0 -0 -0 -0 -0
-0 -0 -0 -0 -0 -0 -0 -0 -0 -0 -0 -0 -0 -0 -0 -0 -0 -0 -0 -0 -0 -0 -0 -0 -0 -0 -126 -269 -5 -172 -188 -333 -301 -280 -275 -2 -16 -9 -10 -7 -0 -0 -0 -0 -0 -0 -0 -0 -0
-0 -0 -0 -0 -0 -0 -0 -0 -0 -0 -0 -0 -0 -0 -0 -0 -0 -0 -0 -0 -0 -0 -0 -0 -0 -0 -0 -0 -150 -3 -4 -1 -0 -46 -302 -12 -12 -18 -18 -17 -6 -0 -0 -0 -0 -0 -0 -0 -0
-0 -0 -0 -0 -0 -0 -0 -0 -0 -0 -0 -0 -0 -0 -0 -0 -0 -0 -0 -0 -0 -0 -0 -0 -0 -0 -0 -0 -0 -1 -1 -2 -1 -7 -4 -3 -9 -12 -14 -16 -15 -12 -17 -0 -0 -0 -0 -0 -0
-0 -0 -0 -0 -0 -0 -0 -0 -0 -0 -0 -0 -0 -0 -0 -0 -0 -0 -0 -0 -0 -0 -0 -0 -0 -0 -0 -0 -0 -0 -2 -1 -2 -2 -5 -4 -8 -8 -2 -1 -4 -7 -15 -19 -9 -0 -0 -0 -0
-0 -0 -0 -0 -0 -0 -0 -0 -0 -0 -0 -0 -0 -0 -0 -0 -0 -0 -0 -0 -0 -0 -0 -0 -0 -0 -0 -0 -0 -1 -1 -2 -1 -3 -3 -7 -6 -2 -11 -0 -17 -4 -3 -2 -5 -0 -22 -0 -29
-0 -0 -0 -0 -0 -0 -0 -0 -0 -0 -0 -0 -0 -0 -0 -0 -0 -0 -0 -0 -0 -0 -0 -0 -0 -0 -0 -0 -0 -0 -0 -0 -0 -0 -0 -0 -0 -0 -0 -0 -0 -0 -0 -0 -0 -0 -0 -1 -3
-0 -0 -0 -0 -0 -0 -0 -0 -0 -0 -0 -0 -0 -0 -0 -0 -0 -0 -0 -0 -0 -0 -0 -0 -0 -0 -0 -0 -0 -0 -0 -0 -0 -0 -0 -0 -0 -0 -0 -0 -0 -0 -0 -0 -0 -0 -0 -1 -0
-0 -0 -0 -0 -0 -0 -0 -0 -0 -0 -0 -0 -0 -0 -0 -0 -0 -0 -0 -0 -0 -0 -0 -0 -0 -0 -0 -0 -0 -0 -0 -0 -0 -0 -0 -0 -0 -0 -0 -0 -0 -0 -0 -0 -0 -0 -0 -0 -0
-0 -0 -0 -0 -0 -0 -0 -0 -0 -0 -0 -0 -0 -0 -0 -0 -0 -0 -0 -0 -0 -0 -0 -0 -0 -0 -0 -0 -0 -0 -0 -0 -0 -0 -0 -0 -0 -0 -0 -0 -0 -0 -0 -0 -0 -0 -0 -0 -0
-0 -0 -0 -0 -0 -0 -0 -0 -0 -0 -0 -0 -0 -0 -0 -0 -0 -0 -0 -0 -0 -0 -0 -0 -0 -0 -0 -0 -0 -0 -0 -0 -0 -0 -0 -0 -0 -0 -0 -0 -0 -0 -0 -0 -0 -0 -0 -0 -0
Wind_Speed
20 18 17 17 12 12 9 10 11 13 15 19 19 17 10 8 11 17 20 20 21 17 12 7 7 7 8 6 8 11 14 15 15 13 13 15 14 16 16 18 19 20 20 20 20 20 20 20 21
19 17 17 17 14 7 8 10 12 13 15 22 21 18 17 16 10 22 22 24 27 25 26 18 8 7 9 8 9 10 12 13 14 12 12 15 16 17 18 18 20 20 20 20 21 21 22 22 22
20 17 19 14 13 9 7 9 11 12 22 22 21 17 16 19 22 25 25 30 30 29 26 25 9 4 4 9 9 9 9 12 16 18 17 17 17 17 17 18 20 20 21 21 21 22 22 22 22
19 19 18 15 9 9 8 8 7 17 22 21 18 21 21 17 25 22 29 31 31 30 28 27 23 20 13 13 14 17 20 16 17 17 16 17 17 18 18 17 19 20 21 21 22 22 22 22 22
19 20 15 13 9 7 8 6 4 23 23 22 20 21 20 22 24 27 30 31 31 29 29 28 27 26 23 21 20 21 20 19 19 19 19 20 20 19 18 18 20 20 21 21 21 21 21 21 22
23 21 14 12 7 7 10 15 22 25 23 22 20 21 21 23 25 28 29 30 29 29 28 28 27 27 26 25 25 25 25 22 20 21 21 21 20 20 19 19 19 20 20 20 21 21 21 21 21
28 22 18 15 7 6 10 22 25 25 23 22 18 21 21 23 24 27 28 28 28 27 27 27 26 26 25 25 25 24 24 21 20 21 20 20 20 19 19 19 19 19 19 19 19 20 20 20 20
24 27 20 16 8 7 15 25 22 25 23 17 18 21 22 24 23 25 26 27 27 26 26 25 25 25 24 24 24 23 22 21 20 19 19 19 19 18 18 18 18 18 18 18 18 18 18 18 18
24 26 19 15 14 10 22 23 22 20 20 21 21 16 11 20 22 23 23 24 26 26 25 24 24 24 23 22 22 21 20 19 19 18 18 19 18 17 17 17 17 17 17 17 17 17 17 17 17
28 28 22 20 19 17 25 27 25 23 23 24 23 14 11 19 22 24 24 24 24 25 23 24 22 22 21 21 20 19 18 18 17 16 16 15 16 16 15 16 16 16 16 16 16 15 14 14 15
28 27 19 19 17 19 21 25 24 23 25 24 26 22 19 20 22 23 23 22 23 23 22 23 23 21 20 20 19 18 17 16 15 14 14 14 14 14 14 14 14 14 13 14 14 13 12 14 15
27 22 20 18 18 18 19 18 23 25 15 14 15 14 19 21 22 23 22 22 22 23 22 21 21 22 21 19 19 17 16 15 13 13 13 12 12 12 12 12 12 12 12 12 12 12 13 13 13
31 22 19 16 17 19 17 20 20 24 17 13 13 14 18 21 22 23 22 22 22 23 23 22 21 20 18 18 16 16 14 13 12 11 11 11 10 10 10 11 11 11 11 11 11 11 11 11 11
24 20 18 17 17 18 21 20 20 20 18 20 19 18 7 14 21 19 21 23 23 22 22 19 18 18 16 14 13 13 13 11 11 9 9 8 8 8 8 8 9 9 9 9 9 9 9 8 9
21 23 20 21 21 19 21 24 26 16 16 18 19 17 20 10 12 18 14 16 18 19 17 17 14 12 12 11 10 9 8 8 7 7 6 5 5 5 6 6 7 7 7 8 8 8 9 9 8
26 27 28 25 24 22 22 26 21 21 24 25 22 17 17 16 6 1 1 9 7 8 11 11 5 6 6 5 5 3 2 2 3 4 4 3 3 4 6 7 6 7 8 8 8 9 9 9 10
32 33 32 27 27 24 26 27 20 23 21 20 20 20 18 14 12 10 3 3 4 2 2 4 4 3 3 2 2 1 2 2 3 3 4 4 3 4 5 6 7 7 8 8 9 9 11 12 13
35 36 29 32 27 28 28 32 23 20 23 23 17 15 15 12 11 11 12 14 11 7 5 4 5 5 4 4 5 7 8 8 7 7 7 7 10 7 6 8 8 9 10 10 11 11 13 14 17
35 34 31 28 25 27 33 34 34 28 26 25 22 19 17 14 14 16 16 17 16 13 8 6 6 6 7 9 9 9 9 10 11 11 11 11 10 11 9 10 11 12 12 13 13 15 16 18 19
29 31 30 26 25 28 28 33 33 32 28 26 25 23 21 19 15 17 17 18 19 17 14 11 9 8 8 10 11 14 13 14 14 14 14 13 13 13 13 13 15 16 16 18 18 18 22 23 21
31 34 30 30 25 26 28 34 33 27 25 24 23 23 21 19 17 16 16 17 18 18 16 14 13 11 11 11 12 15 18 19 17 17 17 15 15 15 16 17 18 20 19 21 22 22 22 26 26
34 27 24 24 26 32 26 32 26 26 26 25 23 20 18 16 14 14 14 16 17 18 17 15 14 13 12 11 12 13 16 18 21 20 18 18 17 18 18 19 21 21 22 22 23 23 22 24 27
31 25 25 25 28 30 29 32 31 23 26 23 20 18 16 14 13 13 13 14 15 15 15 14 12 12 13 14 14 16 18 20 21 22 20 20 20 19 19 20 21 21 22 23 24 24 24 24 27
21 21 22 24 28 39 33 33 33 27 27 21 18 15 13 10 11 11 11 12 13 13 13 13 12 11 11 12 13 15 17 18 20 21 22 22 23 24 23 23 23 24 25 25 26 26 26 27 28
27 27 32 35 37 40 28 33 38 25 22 20 16 13 11 8 8 9 9 10 11 12 12 12 12 12 12 12 13 14 15 17 18 20 21 23 23 24 24 26 26 27 27 28 28 28 28 29 31
34 31 34 39 40 37 29 37 34 23 23 16 13 11 9 7 8 7 8 8 9 10 11 11 12 12 13 13 14 15 15 16 18 19 20 21 23 24 27 27 28 29 29 30 31 33 33 32 33
33 38 28 30 29 34 33 34 31 25 21 16 13 11 9 7 6 7 7 7 8 9 10 11 11 13 14 15 15 16 17 18 19 21 22 23 24 26 28 29 31 32 32 33 34 34 36 36 37
31 25 34 33 39 41 37 38 37 27 22 18 15 13 10 7 6 6 7 7 8 9 9 11 12 13 15 15 16 17 19 20 21 23 24 25 27 29 30 31 32 34 34 35 36 37 37 38 38
31 34 33 32 35 38 40 40 30 27 21 19 15 13 11 9 8 7 7 7 8 8 10 11 13 14 16 17 17 19 20 21 22 24 25 27 28 29 31 32 34 35 37 37 38 39 40 41 42
34 37 35 38 40 40 37 41 27 23 17 16 14 13 12 11 10 9 9 8 8 9 10 11 13 14 16 17 18 20 21 23 24 26 27 28 30 31 33 34 36 37 38 39 40 42 43 45 46
Wind_Direction
240 242 247 241 289 305 358 24 17 47 46 93 134 133 194 216 175 92 93 96 96 85 75 53 36 358 360 345 350 21 40 43 34 20 14 26 26 26 28 35 38 34 36 35 33 29 29 28 29
243 252 243 249 278 325 15 38 53 47 45 120 126 125 136 64 312 81 93 110 113 105 113 86 44 15 28 17 18 22 43 38 27 13 12 28 32 31 34 36 41 37 34 37 38 39 40 41 44
239 248 240 274 281 313 360 55 61 45 116 131 120 145 144 132 79 104 101 117 123 115 110 105 53 329 338 24 23 14 35 35 38 43 34 38 38 32 30 34 44 38 37 41 43 43 45 47 46
241 240 246 266 299 313 331 63 40 91 138 154 156 119 121 150 120 136 121 119 121 122 131 113 99 82 55 53 47 57 77 48 47 39 34 38 38 36 33 29 42 42 38 45 50 49 50 46 46
241 240 261 271 285 317 291 285 40 135 134 141 148 107 140 124 131 121 119 131 125 124 129 135 138 123 104 87 79 86 75 66 57 47 48 56 55 47 35 33 46 45 51 54 49 49 51 47 45
235 243 260 265 286 304 266 234 201 171 164 158 155 135 122 124 116 120 124 129 132 125 130 132 134 132 139 145 142 134 120 82 64 64 62 64 61 56 44 44 34 60 56 56 47 49 49 46 42
230 239 248 261 276 296 264 207 190 177 172 167 193 150 131 122 114 120 127 132 136 126 135 131 133 137 141 142 138 130 112 88 78 74 69 68 62 56 47 48 35 52 51 42 37 42 45 43 43
235 234 245 254 264 280 234 201 209 187 186 221 202 164 146 122 115 121 124 129 140 129 139 132 131 134 133 132 130 121 114 103 87 77 68 70 64 64 56 62 50 50 52 47 39 33 35 37 37
236 234 243 250 252 258 218 214 212 221 210 204 197 219 232 103 113 121 124 129 142 145 140 141 135 137 133 129 128 120 115 104 92 84 82 89 76 87 88 51 54 47 43 43 41 34 36 42 36
228 230 238 242 240 239 214 205 209 207 204 194 189 242 65 106 124 134 138 140 141 147 142 158 142 139 134 132 128 127 120 121 119 107 101 91 78 63 63 52 46 36 45 41 39 41 48 55 43
227 229 240 238 241 232 224 214 213 212 204 201 176 143 120 125 135 143 145 146 148 149 144 153 157 147 143 142 137 135 130 127 120 113 106 86 74 70 69 59 63 56 59 49 42 48 48 31 29
227 234 238 239 240 235 230 230 219 212 246 248 241 108 126 139 145 153 152 152 152 158 157 154 154 160 156 147 149 142 135 130 120 118 111 95 87 84 79 74 70 62 63 55 56 50 44 43 38
228 231 238 241 241 236 240 236 236 225 246 261 265 262 133 146 154 162 158 160 160 166 168 163 160 159 157 156 150 149 141 135 130 117 116 110 99 87 83 79 77 76 73 71 63 61 58 52 46
232 229 233 241 240 241 238 244 243 245 256 253 258 262 301 133 156 151 160 165 167 167 168 161 161 162 159 153 147 150 148 133 133 123 115 119 94 82 82 77 77 74 73 70 66 66 64 60 52
226 229 235 240 240 244 246 245 243 260 262 263 265 268 260 293 137 155 145 152 158 162 158 161 156 152 156 155 153 144 136 137 125 120 110 102 87 64 55 49 49 45 46 42 37 34 28 24 24
230 231 233 239 240 247 246 246 250 258 258 256 262 275 276 278 299 320 94 143 141 145 154 152 142 150 152 149 143 122 87 85 112 62 61 92 66 41 13 6 10 10 9 9 7 8 3 359 356
230 231 234 241 241 246 245 250 260 261 264 268 269 270 277 289 294 301 302 305 298 261 202 182 179 184 186 200 294 310 337 335 352 353 358 9 9 5 2 358 353 353 348 345 345 343 342 341 340
228 231 238 239 243 246 248 247 261 267 263 266 278 286 289 298 305 307 298 293 294 288 275 255 265 256 266 277 283 302 304 306 315 322 322 326 330 332 333 338 340 340 338 337 336 330 330 328 328
235 236 241 242 248 249 248 252 250 259 263 267 271 280 290 299 303 300 298 294 294 292 281 266 257 265 276 287 289 291 292 300 302 304 306 310 311 317 315 320 324 325 322 323 324 324 322 322 323
237 237 239 247 250 251 254 256 255 255 262 267 271 275 282 291 302 303 303 298 294 293 291 286 277 277 278 288 292 299 303 304 304 305 305 304 306 307 310 312 314 317 317 316 315 315 317 318 319
239 239 240 249 250 256 260 260 257 262 267 272 276 278 285 291 298 303 305 304 303 300 294 290 285 283 283 291 298 298 302 306 308 308 308 308 307 306 305 308 310 313 313 313 314 312 309 311 315
238 246 243 246 249 253 257 259 261 261 265 271 277 281 287 294 302 307 310 309 307 306 306 300 293 287 286 288 293 300 302 302 306 308 310 311 310 310 309 308 308 309 311 311 313 312 310 311 311
242 246 247 251 253 256 256 260 263 266 266 271 277 282 289 298 304 309 313 315 315 317 319 321 312 303 298 296 297 302 303 305 308 312 313 314 314 312 311 311 311 311 311 311 311 312 312 310 311
238 243 251 255 256 254 254 257 262 264 266 270 277 284 290 300 308 314 318 321 321 327 331 336 337 332 322 314 310 310 314 313 313 316 316 318 319 321 320 318 316 314 314 313 313 312 311 311 310
239 235 245 248 250 253 260 258 259 271 275 272 273 278 286 300 309 314 322 327 329 332 339 348 352 354 350 345 338 332 330 328 328 326 326 325 326 325 326 326 324 322 321 320 318 316 314 313 311
236 237 245 249 252 256 262 260 265 272 275 276 276 276 281 292 301 309 319 330 339 342 349 355 358 2 3 2 358 355 351 346 342 340 338 337 336 335 333 331 329 327 326 323 321 319 317 316 313
239 240 253 255 263 260 261 265 271 271 269 268 267 269 271 278 290 302 319 332 340 345 348 352 355 356 357 357 357 353 352 349 345 343 341 338 337 335 332 331 330 328 326 325 323 321 319 318 316
247 243 247 253 254 258 262 264 264 264 262 260 256 253 256 265 276 290 306 318 329 337 344 346 348 350 349 353 352 351 349 348 346 344 342 339 337 335 334 332 332 331 330 328 326 323 322 320 319
245 245 250 257 257 260 263 266 273 265 256 251 247 244 245 248 261 278 294 307 318 327 336 341 343 345 344 345 346 346 346 347 345 342 341 339 338 336 335 334 332 331 330 329 327 325 323 321 319
251 250 246 251 255 258 267 266 280 277 260 249 245 246 248 253 259 269 279 293 306 319 330 335 339 340 342 344 346 346 345 344 342 341 339 339 336 336 333 332 331 330 329 328 326 324 323 321 319